Theta_e
303 303 302 301 300 298 297 297 296 295 295 294 294 294 294 294 294 294 294 294 294 295 295 295 295 295 294 296 300 299 298 301 301 300 305 309 308 306 306 310 313 314 313 311 311 311 308 309 309 307 309 311 310 311 311 310 313 316 323 327 325 325 324 325 327 323 324 326 322 319 321 326 328 326 326 328 326 325 325 325 326 327 327 328 329 329 330 326
301 301 303 303 302 300 299 299 298 296 296 296 295 294 294 294 294 294 294 294 294 294 294 295 294 295 295 295 297 297 298 301 301 304 313 315 313 312 312 314 315 314 314 312 312 313 312 310 309 309 310 312 312 312 314 314 313 317 325 327 324 324 322 322 323 319 320 321 319 318 319 323 327 326 326 329 327 324 327 330 330 329 329 330 331 330 330 325
302 300 302 303 301 300 299 299 299 297 297 296 296 295 294 294 294 294 294 294 294 294 294 295 295 294 295 295 295 296 297 299 305 312 316 316 313 312 313 314 314 314 314 313 313 314 315 313 309 310 312 312 312 311 312 314 316 317 321 324 324 323 320 319 319 319 320 319 318 318 319 321 324 325 326 328 327 325 327 333 333 330 330 330 330 330 329 325
302 300 301 301 300 300 300 299 298 298 298 297 296 296 295 295 293 293 294 294 294 294 294 294 294 295 294 295 295 296 296 299 310 317 315 314 313 311 312 313 314 314 314 314 313 315 317 315 311 312 313 313 311 309 310 311 316 318 318 323 325 321 319 319 319 320 321 319 318 318 320 321 322 325 326 326 328 327 325 328 332 329 328 329 330 330 328 325
300 298 298 298 298 299 299 298 298 298 298 298 297 296 295 295 294 294 293 294 294 293 294 294 294 294 294 295 295 295 296 300 312 317 313 313 311 310 313 312 313 313 313 314 314 315 317 316 315 314 314 313 312 310 310 310 312 318 317 319 321 320 319 320 319 319 320 319 318 319 321 321 321 323 324 325 329 329 325 326 328 328 327 328 329 329 328 327
298 296 296 296 296 297 297 297 297 297 297 298 297 296 295 295 294 294 293 293 293 293 294 294 294 294 294 295 294 295 297 300 307 310 310 311 309 310 313 313 314 313 313 314 314 315 317 316 316 316 313 313 313 311 310 310 310 314 317 316 317 318 319 319 319 319 319 319 318 319 320 320 320 321 321 323 326 327 326 326 327 327 327 327 328 328 328 328
297 296 295 295 295 296 296 296 296 296 297 297 297 296 295 295 294 293 293 293 293 293 293 293 294 294 294 294 295 295 297 298 301 303 305 308 308 309 312 313 314 314 313 314 313 314 316 315 316 316 314 314 313 311 311 312 311 312 315 314 314 315 316 318 319 319 318 318 319 320 320 319 320 322 321 321 323 325 327 327 327 327 328 328 328 328 328 328
296 295 295 295 295 295 295 296 296 297 297 297 296 296 295 295 294 294 293 293 293 293 293 294 294 294 294 295 295 295 297 298 299 303 305 306 307 310 311 312 313 313 313 314 313 314 316 316 316 316 315 314 314 314 314 314 313 312 312 311 311 313 315 316 318 317 317 318 318 320 320 320 321 321 321 321 322 324 327 328 327 327 328 329 329 329 329 328
297 296 296 295 295 295 296 296 297 297 296 297 296 296 295 295 294 294 293 293 293 293 293 293 294 296 296 295 295 296 299 298 297 301 303 303 307 310 310 310 312 313 313 313 313 314 316 316 317 317 316 315 315 316 316 316 315 312 311 312 312 313 314 315 316 316 317 317 317 319 320 320 320 321 321 321 321 324 326 326 327 328 328 329 330 329 330 329
298 296 295 295 295 295 295 296 296 296 296 296 297 296 295 295 294 294 293 293 293 293 293 294 295 297 297 296 298 299 299 298 298 298 298 301 306 309 310 310 311 312 312 312 312 314 316 316 317 317 317 316 315 315 315 316 316 314 314 314 313 313 314 314 315 316 316 316 317 319 321 319 319 321 321 321 321 322 323 324 325 328 329 328 329 329 329 330
297 296 295 295 294 295 295 296 296 297 297 297 296 296 295 295 294 294 293 293 293 294 294 295 296 298 298 297 299 301 299 299 301 299 297 300 303 306 309 310 310 310 310 311 312 314 316 316 317 317 317 316 315 315 314 314 315 315 316 317 315 313 313 314 314 315 315 317 317 319 321 319 319 320 320 321 321 321 321 322 323 325 329 329 329 329 329 330
296 295 295 294 294 294 295 296 297 297 297 297 296 296 295 294 294 294 294 293 294 295 296 298 300 299 298 298 299 300 299 300 302 300 300 301 302 303 306 307 308 307 307 309 311 313 314 315 316 317 317 316 316 316 315 314 315 315 317 319 318 315 314 313 314 314 314 316 317 318 320 320 320 320 319 320 321 321 320 321 321 322 325 327 329 330 329 330
296 295 294 294 294 295 295 296 297 297 297 297 296 295 295 295 295 294 294 294 295 297 298 299 300 299 299 300 299 300 300 301 302 301 301 302 303 302 303 304 305 306 306 307 309 311 312 313 314 316 317 316 315 315 315 313 313 316 317 318 318 315 314 313 312 315 314 315 317 318 319 318 318 318 318 320 320 321 321 320 320 320 321 323 327 329 329 329
296 295 294 294 294 295 296 297 297 297 297 297 296 296 296 296 296 295 295 296 296 298 299 298 298 299 300 300 300 300 300 301 302 301 300 299 302 303 302 303 303 304 304 305 309 310 310 311 312 314 317 316 315 314 314 313 313 318 318 318 319 315 314 314 313 314 314 313 315 319 319 317 317 317 316 318 319 319 320 319 320 320 320 320 324 327 329 329
296 295 294 295 295 296 297 297 297 298 298 297 297 297 296 296 296 296 296 296 297 298 298 297 298 300 300 300 300 301 300 301 302 300 298 297 300 301 301 303 304 304 304 305 308 309 310 311 312 315 316 315 314 314 315 316 316 319 319 320 322 317 314 316 314 312 313 313 314 318 319 318 318 317 316 316 317 318 318 318 319 319 319 319 320 324 327 328
296 295 294 295 295 296 298 298 298 298 298 298 297 297 297 297 297 297 296 297 298 298 297 298 299 300 302 302 300 301 301 301 301 299 298 297 298 299 300 303 304 305 306 305 307 309 309 310 313 315 316 315 314 314 315 317 317 317 318 320 321 320 317 318 317 312 312 312 313 316 317 318 321 319 316 317 316 317 317 318 318 318 318 319 319 320 324 327
297 295 294 295 295 297 298 298 298 298 298 298 298 297 297 297 297 297 297 297 298 299 299 299 300 301 303 302 300 301 301 301 300 298 297 297 297 300 303 303 303 305 306 306 306 308 309 310 313 315 315 316 315 315 315 315 314 314 315 317 318 320 318 319 319 314 312 312 313 315 314 315 320 319 315 316 316 315 316 316 318 317 317 318 319 319 321 324
297 296 294 294 296 297 298 298 298 298 298 298 298 298 298 297 298 298 297 297 298 300 301 299 300 302 303 300 300 302 302 302 301 299 298 299 299 302 304 304 302 302 306 307 307 308 310 312 314 315 315 315 314 315 314 313 312 312 313 315 316 317 317 318 318 315 313 312 312 314 314 313 315 315 313 315 315 314 315 316 317 317 318 318 318 319 321 322
297 296 295 294 296 297 298 298 298 299 298 298 298 298 298 298 299 299 298 297 298 299 300 299 299 301 300 300 301 302 302 302 301 300 301 301 300 302 303 302 302 304 307 309 309 309 311 312 313 314 314 314 314 314 313 312 312 313 313 313 313 314 315 315 316 315 313 313 312 312 313 313 314 314 313 314 314 314 315 316 316 317 317 318 318 318 320 321
297 296 295 295 296 297 299 298 298 299 298 298 298 298 299 299 299 299 298 297 298 297 299 299 298 299 299 301 302 302 302 301 301 302 302 301 301 301 301 302 304 307 309 309 309 310 310 311 312 312 312 313 313 313 313 314 314 314 314 314 313 313 313 313 315 316 313 313 313 312 312 312 313 314 314 313 314 314 314 315 315 316 317 317 318 318 319 320
296 296 295 295 296 297 299 299 299 299 298 299 299 298 299 299 299 299 299 298 297 298 299 299 300 300 300 301 302 302 302 301 301 302 302 302 303 302 303 306 308 308 308 308 309 309 309 310 310 310 311 313 313 313 313 313 313 314 314 315 314 314 313 313 314 315 313 313 315 315 314 313 312 314 314 314 315 315 314 314 315 315 317 317 318 318 319 320
296 296 295 295 296 297 298 299 299 299 298 299 299 299 299 299 299 299 298 298 298 298 300 301 301 301 301 302 302 302 302 302 302 302 302 302 303 304 304 306 307 307 307 308 307 308 309 309 309 309 311 312 313 313 313 313 312 313 314 314 314 314 313 313 313 314 314 315 317 317 316 315 314 315 316 315 315 315 315 315 316 316 317 318 318 319 319 319
295 296 295 295 295 296 298 299 300 299 298 299 300 300 299 299 298 298 298 299 299 299 300 301 302 301 301 301 301 302 302 302 302 302 302 301 302 304 304 305 306 305 306 307 307 307 308 309 308 309 310 312 313 313 314 313 312 312 313 313 313 313 312 313 314 315 315 315 317 317 315 315 315 316 315 313 312 313 315 316 317 317 317 317 318 318 319 319
295 295 295 295 295 296 297 299 300 299 299 300 300 300 300 300 298 297 298 299 299 299 299 301 302 301 301 301 301 302 303 302 302 302 301 301 301 303 304 305 306 305 305 306 306 306 307 307 307 308 309 311 313 313 313 314 313 313 312 313 313 312 312 312 312 314 314 313 314 315 315 315 315 316 316 313 311 311 312 313 314 316 317 317 316 317 318 319
295 296 295 295 295 295 296 299 299 299 299 300 300 299 299 299 298 298 298 298 299 300 299 301 303 302 301 301 300 301 302 302 301 302 301 301 301 302 303 305 305 306 306 306 307 307 307 307 307 308 308 310 312 313 313 313 314 313 313 313 312 312 313 312 313 313 314 315 315 314 316 316 316 317 316 314 314 312 311 312 312 313 315 315 315 315 316 317
295 295 295 295 296 295 296 298 298 299 300 300 300 299 299 298 297 298 298 299 303 302 298 301 304 302 301 301 299 300 302 303 301 301 302 301 301 302 303 305 305 306 307 307 307 308 308 308 308 308 307 308 310 311 312 312 313 314 315 315 314 313 313 313 314 315 317 318 315 312 314 315 314 316 316 314 314 313 312 313 312 311 313 314 314 315 316 316
296 296 295 296 296 295 296 297 297 299 300 300 300 299 298 298 297 299 299 300 303 299 298 302 303 301 301 300 299 300 302 302 301 302 302 301 302 303 303 304 305 305 306 307 306 307 308 308 309 308 308 308 308 309 310 312 313 314 314 315 315 315 314 314 315 315 317 318 315 312 313 313 312 313 314 312 312 311 310 311 311 309 310 312 313 314 315 315
296 296 296 296 296 295 295 296 296 299 300 300 300 299 298 298 298 299 300 300 299 297 299 302 301 300 300 299 299 300 301 302 302 302 301 301 302 303 304 304 304 305 305 305 305 306 307 308 309 309 308 308 308 308 309 310 311 313 314 314 314 314 314 314 315 315 315 316 316 315 313 313 312 311 312 311 309 310 310 310 309 307 307 310 311 313 314 315
295 295 296 296 296 296 295 296 297 298 300 300 300 299 299 298 298 300 302 300 297 297 300 301 300 299 299 299 299 299 301 302 302 302 300 301 302 303 304 304 303 304 305 305 305 305 305 307 308 308 308 307 307 308 308 308 310 311 312 312 313 313 313 313 314 315 315 315 316 315 313 314 314 312 311 311 309 310 310 309 309 306 306 308 309 311 312 314
293 294 295 296 296 295 295 297 298 299 300 300 300 299 298 299 300 302 303 300 296 297 299 299 299 299 299 299 298 299 300 301 301 302 300 300 301 301 302 304 303 304 303 304 305 304 304 305 306 307 307 307 307 307 307 307 308 309 310 312 313 313 312 313 314 314 316 316 316 315 314 314 314 313 310 310 311 311 310 309 309 307 306 308 309 310 310 311
291 292 294 295 295 294 295 297 299 300 300 300 299 299 298 299 301 302 300 297 296 298 299 299 298 298 299 298 298 299 300 300 301 301 300 301 302 301 302 303 303 303 304 304 304 304 303 304 305 306 307 307 309 308 307 308 308 308 310 312 313 313 313 314 314 314 316 318 316 315 314 313 314 314 310 309 311 311 310 309 310 309 307 308 309 310 310 310
291 292 293 294 294 294 296 298 299 300 300 300 299 298 299 300 301 300 298 297 298 299 299 298 298 299 299 299 299 300 300 301 300 300 300 302 302 301 302 304 303 302 302 303 304 304 304 305 305 306 307 308 309 309 309 309 309 309 310 311 312 313 315 315 315 315 316 317 315 316 315 313 313 313 310 310 310 310 309 307 307 307 306 307 309 310 310 310
292 292 293 293 294 295 297 299 299 300 300 300 298 298 301 302 301 298 298 299 298 297 298 299 299 299 299 299 299 299 300 301 300 299 299 300 300 300 301 304 304 303 302 302 303 303 304 306 305 305 308 307 307 308 308 308 308 309 309 310 311 313 315 316 316 316 316 316 315 315 315 315 314 313 313 312 311 310 310 308 308 307 306 307 308 309 309 309
291 293 293 294 296 297 298 299 299 299 299 299 299 300 301 301 299 298 299 300 298 297 298 299 299 299 300 300 299 299 300 301 300 299 299 299 299 299 301 303 304 304 303 303 303 303 303 306 305 305 305 303 304 307 307 307 308 309 310 310 310 311 313 314 315 315 315 315 313 313 314 316 315 315 315 313 310 309 310 311 311 310 309 309 309 308 308 308
292 293 294 297 298 298 299 298 298 299 300 299 300 301 300 299 298 299 300 300 299 299 299 299 299 299 301 301 300 299 298 300 301 300 299 299 298 299 301 303 302 303 302 302 302 303 303 304 304 303 301 301 305 307 306 308 309 309 311 311 310 311 312 312 313 313 312 312 312 312 313 316 313 312 313 312 311 310 309 309 309 309 310 309 309 309 309 309
293 294 296 298 299 298 298 296 296 299 299 299 300 299 299 300 299 299 299 299 299 299 299 299 299 299 300 301 301 299 298 299 301 299 299 299 299 299 301 302 303 302 302 301 302 302 301 301 301 300 301 304 305 304 306 308 309 309 310 310 310 311 311 311 311 311 311 311 313 312 313 313 312 312 312 311 311 311 311 309 306 306 307 308 308 308 309 309
294 296 298 299 298 298 298 296 296 298 298 298 299 299 299 300 299 299 299 298 299 299 299 299 299 299 299 299 300 300 299 300 300 299 298 299 299 300 300 301 302 303 302 301 301 302 300 300 300 300 303 305 300 301 305 306 307 308 308 308 309 309 311 312 311 312 312 312 312 312 312 312 312 314 314 311 312 312 313 312 308 306 306 306 307 308 309 309
294 297 299 299 298 299 298 296 295 297 298 298 298 299 300 299 298 298 299 298 299 299 299 300 300 299 298 299 299 299 299 299 299 298 298 298 299 298 298 301 302 302 302 300 300 302 300 300 301 301 302 302 300 303 306 305 305 307 307 307 308 308 310 311 311 311 312 313 313 312 313 312 312 314 314 312 314 314 312 311 310 309 307 306 307 308 309 308
292 296 299 299 299 298 297 295 296 296 298 299 298 299 299 299 298 298 299 299 299 299 299 300 300 299 299 299 299 299 299 299 299 298 298 298 299 298 298 301 301 300 300 300 301 302 301 300 302 302 301 300 302 307 306 305 305 306 306 308 308 308 309 310 310 310 311 312 312 312 313 313 314 314 313 312 311 310 309 308 309 308 306 306 307 308 308 308
291 295 298 299 299 297 295 295 296 296 297 299 299 299 298 297 297 298 299 299 298 299 300 300 299 300 300 300 299 298 298 299 298 298 298 298 299 299 299 300 300 299 298 300 301 301 300 299 300 302 301 300 303 306 303 302 303 303 305 306 307 308 308 309 309 309 310 312 312 312 312 315 317 314 310 309 308 308 308 308 308 307 305 306 308 308 309 309
291 294 297 298 297 295 294 296 297 297 297 297 298 299 298 298 298 298 299 299 299 299 299 299 299 300 300 300 299 298 298 298 299 298 299 299 299 299 299 299 298 298 298 300 301 300 300 300 300 301 301 300 301 302 301 300 300 301 303 305 307 307 307 307 308 308 308 308 309 310 310 313 315 311 306 306 307 306 308 308 307 306 306 307 307 309 310 309
291 293 296 296 295 294 295 297 297 296 297 296 297 299 298 299 299 299 299 299 299 298 298 298 298 299 299 299 299 299 299 299 299 299 299 299 298 298 299 298 297 298 298 300 301 299 299 300 300 300 301 300 299 299 298 298 299 301 303 305 306 306 305 306 306 305 304 303 305 307 308 311 312 309 305 304 303 303 305 306 306 305 305 306 307 309 310 309
290 293 296 296 295 296 297 297 297 297 297 297 297 298 297 298 299 299 299 298 298 298 298 299 298 298 298 299 298 299 299 298 299 299 299 300 299 299 298 298 298 298 299 300 301 300 300 300 300 300 299 298 299 301 300 299 301 304 304 305 305 305 305 304 303 303 303 302 304 306 307 310 311 308 305 302 301 301 303 304 304 304 304 305 307 308 309 308
291 293 295 295 296 297 297 297 297 297 297 297 296 296 296 297 298 299 298 297 297 298 299 300 299 298 298 298 298 299 299 298 298 299 299 299 299 299 298 298 299 299 299 300 300 300 300 300 300 299 298 297 299 304 304 302 303 302 301 303 305 304 303 302 302 303 303 302 303 305 305 306 306 305 303 302 301 301 301 302 303 303 304 305 306 307 307 307
292 293 294 295 296 296 297 297 296 297 297 295 295 295 296 297 297 297 296 295 295 296 298 299 298 298 298 298 298 298 298 298 298 299 299 299 299 299 298 298 299 299 299 299 299 300 299 300 300 299 298 297 298 300 301 301 300 299 299 301 302 301 301 301 301 302 302 302 303 304 303 302 302 302 302 301 301 301 301 301 301 302 302 303 304 305 306 306
293 294 294 294 295 296 297 296 295 295 295 294 294 295 296 296 295 294 294 295 296 296 297 298 298 298 298 298 298 298 298 298 298 298 299 299 300 299 298 299 298 298 299 298 299 300 299 299 300 299 298 298 298 298 298 299 298 298 298 299 299 299 299 301 301 301 301 301 301 301 301 301 301 301 301 301 301 301 301 301 300 301 302 302 303 304 304 305
293 294 294 294 294 295 295 294 293 293 294 293 293 294 295 294 294 294 294 295 296 296 297 298 299 298 298 297 297 296 297 297 297 298 298 298 298 298 297 298 298 298 299 299 299 300 300 300 300 300 299 298 298 298 298 298 298 298 298 298 298 299 299 300 301 300 300 300 299 299 300 301 300 300 300 300 300 300 300 300 300 300 301 302 302 302 303 304
293 293 293 293 294 294 294 294 292 292 292 292 293 294 294 293 293 293 295 295 295 296 297 298 298 296 295 295 295 295 295 296 296 297 297 296 295 296 296 297 298 298 299 299 299 300 300 300 299 299 299 298 298 298 298 298 298 298 298 298 298 298 298 299 299 299 300 300 300 299 299 300 300 299 300 299 299 299 299 300 300 301 301 302 302 302 302 303
292 292 292 293 293 293 293 292 292 291 291 292 293 293 293 293 293 294 294 294 295 295 296 296 295 294 293 293 293 293 294 295 295 295 295 294 294 295 296 297 298 299 298 298 298 298 299 300 300 299 299 299 299 298 298 298 298 298 298 298 298 298 298 298 298 299 299 300 300 300 300 299 299 299 299 299 299 299 300 300 301 301 301 301 302 302 302 303
292 292 293 293 292 292 291 292 292 292 292 292 293 293 293 293 293 293 292 293 293 293 294 294 293 292 291 292 292 292 292 293 293 293 293 293 294 295 296 296 297 297 297 296 297 298 299 300 300 299 299 299 299 299 299 298 298 298 298 298 298 298 298 298 298 298 299 299 299 299 300 300 299 300 300 300 300 300 301 301 301 301 301 301 302 302 303 303
292 292 292 292 291 291 291 292 292 292 292 292 292 293 293 293 293 292 291 292 292 292 293 293 291 291 290 291 291 291 291 292 292 292 293 293 294 295 295 296 296 295 295 295 296 297 299 299 299 299 299 299 299 299 300 299 298 298 297 297 297 297 298 298 298 298 299 299 299 300 300 300 300 300 300 300 301 301 301 300 300 301 301 301 302 302 302 303
292 292 292 292 291 291 291 291 291 291 291 291 291 293 293 292 292 291 291 291 291 291 292 291 290 290 290 290 291 291 291 292 292 292 293 293 293 294 294 294 294 294 294 295 295 297 298 298 298 299 299 299 299 299 299 299 298 298 298 298 298 298 298 298 298 298 299 299 299 300 300 300 300 301 301 301 301 301 300 300 300 300 300 301 302 302 302 302
Wind_Speed
16 16 16 16 16 17 17 17 17 17 17 17 18 18 18 18 18 18 19 19 20 21 21 23 24 25 25 26 26 25 24 23 24 18 15 14 10 8 7 5 9 13 15 15 16 16 13 10 9 10 10 8 7 8 7 9 10 6 2 3 6 5 6 6 7 7 4 2 4 5 5 6 8 12 12 10 12 14 15 15 13 17 16 10 12 10 14 24
15 16 16 16 17 18 19 19 19 19 18 18 18 18 18 18 18 18 18 18 19 20 21 22 23 24 26 26 26 26 26 22 20 13 8 10 10 6 4 5 10 12 13 12 12 13 12 10 9 7 7 5 6 7 6 6 7 7 2 3 7 5 5 7 7 7 5 5 5 8 12 5 10 12 11 8 7 13 12 8 10 14 14 12 13 12 18 26
16 17 17 16 17 18 19 20 21 21 20 20 19 19 19 18 18 18 18 18 19 19 20 21 22 24 24 27 27 26 26 21 13 6 10 12 11 9 6 5 8 10 11 11 10 10 10 10 9 7 7 6 7 8 6 5 5 8 6 4 6 5 5 8 10 11 12 11 6 10 14 7 11 13 9 7 7 12 11 10 10 12 16 15 15 17 23 28
17 18 18 18 18 18 19 20 21 22 22 22 21 21 20 19 19 18 19 19 19 19 20 20 22 23 24 26 26 26 27 18 6 8 9 6 5 5 4 4 6 9 10 10 10 8 8 8 7 7 6 6 8 8 6 9 7 5 7 5 5 4 5 10 14 16 18 16 9 10 13 10 12 11 9 8 7 5 10 21 22 21 23 21 20 23 27 29
18 19 20 20 20 20 20 21 22 22 22 22 22 22 22 21 19 19 19 19 19 19 19 20 21 22 24 25 25 27 23 10 4 9 5 0 3 5 4 5 6 10 11 10 10 7 6 5 6 6 4 4 6 5 6 13 11 4 6 7 7 6 5 11 15 16 19 19 13 9 9 12 11 8 10 9 8 8 16 27 28 27 28 25 24 26 29 30
19 20 20 21 22 21 21 22 22 22 22 22 22 22 22 22 20 19 19 19 19 18 19 19 20 22 23 24 24 24 15 4 3 3 4 6 6 7 6 7 9 10 11 10 10 7 6 6 7 7 4 3 4 5 7 12 10 5 6 8 9 11 7 12 17 15 17 16 12 9 10 13 10 8 12 11 10 12 18 25 27 25 25 26 26 28 31 32
20 20 21 22 22 22 22 23 22 22 22 22 22 22 22 22 21 20 19 19 19 19 19 18 20 21 23 25 23 21 15 10 11 9 10 8 8 9 6 6 9 10 10 10 11 9 9 9 8 7 3 3 4 5 9 13 11 6 5 7 11 15 13 16 21 20 19 14 12 12 10 11 8 8 10 11 14 13 9 14 22 24 23 25 27 29 31 31
19 20 21 22 23 23 23 23 23 23 23 23 22 22 22 22 21 20 19 19 19 19 19 18 19 20 22 23 22 23 19 14 12 8 10 11 9 7 6 5 7 9 9 9 11 11 11 8 8 6 2 3 5 5 8 11 10 6 5 7 10 14 15 17 20 20 20 14 13 14 10 12 13 10 8 10 15 12 7 6 12 20 23 27 28 29 30 31
20 21 22 23 23 24 24 24 24 23 24 24 23 22 21 21 20 19 18 18 19 19 19 18 18 19 20 20 20 17 15 15 15 11 12 16 12 6 6 6 6 8 8 7 9 11 10 8 10 7 3 7 8 8 7 5 4 4 4 8 8 11 14 15 16 15 15 13 11 10 9 15 18 11 9 16 19 13 9 6 7 14 21 27 28 30 31 32
21 22 23 23 24 24 24 24 24 24 25 24 24 23 21 20 19 17 17 17 18 18 19 17 17 17 17 19 16 9 13 21 20 14 14 17 15 10 6 4 5 7 9 9 8 8 10 9 11 9 7 9 8 8 7 4 5 9 11 13 12 15 16 14 13 13 12 12 11 7 7 16 19 10 7 14 20 18 15 13 10 12 18 23 27 29 31 33
22 23 23 23 23 23 24 24 25 24 24 24 25 24 22 20 17 16 15 16 17 17 17 17 16 17 17 17 12 8 16 22 18 15 11 12 14 13 10 6 6 8 11 12 9 7 9 10 12 10 5 5 6 9 10 7 9 15 14 12 13 13 14 13 12 13 10 7 8 6 7 15 16 9 7 14 19 21 20 19 16 14 15 20 24 27 30 32
22 23 23 23 23 24 24 25 24 23 23 24 24 23 22 19 16 15 14 14 14 14 16 15 14 17 18 18 16 13 16 17 16 16 11 11 13 13 13 11 10 11 14 16 13 9 9 11 13 12 8 6 6 6 7 9 13 16 10 7 9 9 9 12 10 9 5 2 3 3 6 12 13 9 9 16 21 20 21 20 19 17 15 18 21 25 28 30
22 22 23 24 24 24 25 25 23 22 22 23 23 23 22 19 16 13 12 13 12 12 15 13 14 17 16 20 17 12 13 14 16 16 15 17 16 14 14 15 15 15 15 18 16 12 12 13 15 16 14 9 5 7 11 14 14 12 6 3 5 8 8 9 8 8 6 5 4 0 6 12 11 12 14 18 20 21 24 24 24 23 20 20 21 24 26 28
21 22 23 24 25 25 25 24 22 22 23 23 24 23 22 20 15 12 11 12 12 12 13 13 15 15 15 17 13 13 17 15 13 15 19 21 18 16 14 15 17 17 17 18 16 15 14 15 18 17 15 11 9 12 13 11 7 5 4 3 3 4 5 3 3 7 5 7 9 6 8 12 7 9 16 21 21 21 25 26 28 30 28 26 24 25 26 27
21 22 24 24 25 26 25 23 22 23 24 24 24 23 23 19 15 13 10 10 13 15 15 15 14 12 15 15 13 19 21 13 12 19 24 23 19 19 17 15 16 17 18 19 17 14 14 16 17 13 11 11 9 8 6 4 3 2 4 4 2 5 4 4 3 6 6 7 12 12 7 8 5 7 16 23 24 24 27 29 30 31 32 32 31 30 29 29
20 22 23 25 25 26 25 23 23 24 25 24 24 24 21 17 15 11 8 13 18 17 13 10 12 11 10 10 17 24 21 17 21 25 24 21 19 19 17 17 17 16 17 19 18 14 14 16 16 12 9 8 4 2 3 4 4 2 5 5 2 4 2 3 5 7 11 6 7 12 8 3 3 11 22 28 27 25 24 27 31 32 34 36 36 36 35 33
21 22 23 24 25 26 25 22 22 23 23 24 25 24 19 17 11 5 12 19 15 8 4 7 13 11 5 12 23 25 24 25 26 23 20 17 14 14 14 16 17 18 18 18 18 15 15 12 9 8 6 4 3 3 1 5 6 4 3 4 3 4 2 2 5 5 10 8 7 11 11 10 6 8 16 21 21 22 22 23 28 29 31 34 35 34 35 36
21 21 22 23 24 25 24 22 22 21 22 24 26 22 18 17 9 5 18 22 12 7 6 12 16 4 4 19 26 24 26 28 23 20 18 15 11 11 12 15 16 17 17 13 12 11 10 7 4 5 3 4 4 5 6 6 5 4 4 3 4 4 5 6 5 4 4 6 9 10 11 14 11 9 14 17 14 15 20 23 25 27 29 31 32 31 32 34
21 21 21 22 23 24 23 22 21 19 21 24 25 21 17 22 12 7 24 25 15 8 2 11 14 1 7 21 25 25 26 23 20 18 17 15 11 11 13 15 15 13 9 5 4 5 5 4 4 6 6 7 7 7 9 5 0 3 4 4 5 6 7 7 6 7 6 5 9 11 12 14 12 11 16 23 22 15 17 20 21 24 27 29 30 31 32 33
21 21 20 21 23 23 22 22 19 17 21 24 27 24 22 27 14 9 29 27 17 12 6 10 11 6 12 20 24 27 26 22 20 18 17 17 11 10 12 10 9 6 2 2 4 4 4 5 6 9 8 6 6 7 8 7 6 6 4 4 6 6 6 6 5 7 6 5 8 11 13 14 14 13 14 24 26 15 13 14 16 20 23 26 29 31 33 35
20 20 19 20 22 22 21 21 16 15 20 21 26 26 21 22 10 8 26 23 17 16 8 7 6 8 15 18 21 25 24 20 21 18 16 17 13 7 7 4 2 2 1 2 4 5 3 5 10 10 7 5 5 5 6 8 10 9 6 6 7 6 7 7 6 8 4 3 8 9 11 14 14 13 13 18 18 13 14 15 16 20 22 25 27 30 33 35
19 19 18 19 20 22 21 18 15 15 18 18 22 23 18 17 12 10 15 14 16 14 6 7 5 10 19 17 19 24 19 13 18 21 17 19 14 4 6 6 2 3 2 1 2 5 5 7 12 10 6 5 5 5 6 9 10 8 6 6 8 7 7 7 6 8 4 3 7 7 7 11 10 9 10 12 12 14 21 21 20 22 22 24 26 27 30 33
18 17 18 19 20 21 19 16 14 14 17 16 18 20 17 17 15 15 12 9 13 9 6 8 6 12 20 17 20 24 16 8 12 21 20 19 15 6 6 4 3 4 3 0 0 4 5 6 9 8 7 7 7 8 8 8 6 6 6 6 8 7 5 6 5 5 5 4 5 5 6 7 6 6 7 11 13 14 21 25 25 24 23 25 27 26 28 29
16 15 16 18 19 20 19 15 13 14 15 13 14 15 15 16 15 17 14 5 7 6 7 8 6 12 19 20 24 22 16 10 11 18 18 15 15 9 5 4 3 4 3 3 3 5 8 11 11 7 7 8 9 9 9 7 5 7 8 7 8 8 7 7 5 6 8 7 5 5 8 7 5 7 6 9 11 11 16 21 22 26 28 30 29 28 28 28
15 14 15 17 18 19 18 14 14 16 13 11 11 12 13 15 16 17 12 2 3 6 7 7 5 10 19 23 28 24 16 11 13 18 15 13 16 10 5 3 2 2 4 3 3 5 8 11 11 8 7 7 7 8 8 7 6 6 7 9 10 9 8 9 7 5 6 7 6 3 5 6 4 8 8 6 7 9 12 13 16 25 31 31 31 31 31 31
14 13 14 15 17 19 17 13 15 15 11 10 10 11 12 13 15 15 8 3 2 5 6 6 3 10 20 24 31 26 9 8 17 16 13 18 19 9 4 3 2 2 2 2 2 3 4 5 4 7 10 8 6 7 7 7 6 6 5 8 11 10 9 9 7 5 5 5 4 1 3 7 4 5 8 7 8 11 9 8 14 23 27 28 31 33 34 34
14 12 13 14 16 18 17 15 16 13 10 10 9 9 11 12 15 12 5 4 3 5 4 4 3 11 20 26 29 16 2 12 17 12 16 24 19 7 3 4 2 3 3 2 3 1 1 3 4 2 4 6 6 6 6 5 6 6 3 3 7 9 10 10 7 6 5 4 5 1 2 6 7 6 7 7 7 9 8 8 12 17 23 26 28 31 34 36
13 12 12 13 14 16 16 15 15 12 9 9 8 9 11 12 14 8 4 4 4 5 3 3 7 14 24 29 24 10 5 13 8 10 24 22 14 8 3 3 3 4 3 1 4 1 2 2 2 4 3 3 5 5 4 2 4 5 5 5 5 6 7 8 7 7 4 3 7 6 3 5 8 5 5 6 6 7 10 11 11 12 19 26 29 32 35 36
13 11 11 13 13 13 14 14 13 10 9 8 8 9 11 13 11 4 6 2 3 5 3 6 10 16 26 26 19 13 10 7 2 13 26 17 12 11 3 5 4 5 5 3 6 5 3 4 3 1 1 4 5 5 4 2 3 5 7 7 6 3 3 4 5 6 5 6 9 9 6 6 9 4 4 5 7 9 12 10 8 10 18 24 28 32 35 36
13 12 11 12 12 12 12 12 11 9 9 9 8 8 10 10 5 4 5 1 2 4 5 7 9 15 23 16 9 12 10 6 7 15 21 16 14 14 8 8 5 3 4 3 6 8 8 11 10 6 7 7 5 6 6 5 5 4 6 6 6 4 3 3 3 4 5 7 10 12 10 8 9 5 5 6 6 8 8 7 6 9 15 22 26 29 32 33
12 11 10 10 11 13 12 11 10 9 9 8 7 8 7 5 3 6 2 2 2 5 6 5 6 12 17 9 4 9 8 8 10 11 14 14 12 14 10 4 4 3 3 2 4 7 7 7 7 7 11 10 4 5 7 6 4 1 2 4 5 5 4 3 2 3 5 7 8 10 10 9 10 8 5 5 6 7 7 7 7 8 13 22 28 31 33 34
11 10 8 8 9 11 10 9 9 8 7 6 6 7 3 3 4 2 2 5 2 3 4 3 5 9 11 7 3 6 5 6 8 8 7 6 6 7 6 3 4 5 4 5 5 5 5 3 2 6 6 6 1 4 4 4 4 2 1 3 3 4 3 4 4 4 4 5 4 5 7 7 10 10 6 6 7 5 5 7 10 11 16 24 30 33 35 37
11 8 5 5 6 7 7 6 8 8 5 4 5 5 4 5 2 2 3 4 1 3 3 3 6 9 8 5 4 5 4 4 6 8 6 4 4 4 4 4 4 3 2 4 5 6 5 3 4 5 1 3 2 3 2 1 2 3 3 3 5 5 4 4 5 4 4 4 1 4 7 5 7 8 9 11 11 11 15 19 22 22 23 27 31 32 33 33
9 7 6 4 4 5 5 5 8 7 4 4 3 3 7 4 2 2 2 3 3 4 3 3 7 9 5 3 3 3 4 4 5 8 6 5 5 4 5 5 6 4 2 2 4 4 3 4 4 2 2 6 3 3 3 1 2 4 3 3 5 5 5 4 3 3 4 3 2 2 4 5 4 4 6 10 12 15 23 29 30 29 29 32 33 33 33 33
8 6 5 4 4 4 6 9 9 7 4 3 3 4 5 1 3 1 2 4 3 4 6 6 5 4 3 3 4 3 4 3 6 7 5 5 4 3 3 4 6 5 2 3 3 2 1 5 4 3 5 4 1 3 2 1 3 4 3 2 4 5 5 4 5 3 2 4 2 2 3 4 4 6 6 6 7 7 15 22 24 28 32 33 34 36 39 39
7 5 5 6 6 6 8 10 9 6 4 4 4 3 2 3 3 3 1 1 1 3 8 7 2 1 3 4 4 5 3 2 5 6 4 5 4 2 2 2 2 3 2 2 2 2 2 5 7 8 8 3 3 3 3 4 3 1 1 1 2 3 3 4 7 4 3 6 3 3 6 5 4 9 8 10 12 8 8 11 13 19 26 27 28 33 37 38
7 6 7 6 7 7 8 10 10 5 4 5 3 1 2 3 3 3 1 4 3 3 4 4 2 2 3 3 3 5 5 3 5 5 4 4 3 1 2 2 1 2 2 2 1 2 0 6 9 6 5 4 5 7 5 4 1 1 1 2 3 2 2 3 4 4 5 7 5 7 11 6 4 6 5 6 10 10 8 8 8 13 18 20 24 32 36 37
7 6 6 5 5 5 8 11 10 3 4 4 1 1 0 1 1 1 3 4 3 2 1 1 1 1 1 2 4 4 5 4 5 5 4 3 2 1 3 2 1 2 4 2 1 1 1 5 7 2 3 8 10 7 3 3 3 1 1 1 2 2 3 2 3 3 4 6 4 5 9 6 5 5 4 4 7 6 6 6 7 10 12 14 21 28 32 35
6 4 4 4 3 5 9 11 9 3 4 3 0 2 1 2 4 4 5 4 2 0 1 2 2 1 2 2 4 4 4 4 5 4 3 1 2 3 4 1 2 5 7 1 1 2 1 1 6 3 2 7 8 4 2 4 5 4 4 2 1 2 3 2 2 1 3 4 4 4 5 4 4 6 5 5 4 7 8 9 9 9 12 17 23 29 32 30
6 2 3 3 2 6 11 10 6 4 3 2 2 2 1 2 5 6 7 6 2 2 2 2 1 1 2 3 4 3 2 4 4 3 2 0 3 6 3 1 2 8 10 3 2 2 1 1 5 6 5 6 4 1 2 5 4 4 5 3 2 2 1 2 1 1 2 3 4 5 4 3 4 2 1 3 6 7 7 8 7 9 15 19 23 28 31 32
5 3 2 1 5 8 10 7 3 3 2 1 2 2 2 2 4 7 9 7 4 5 5 3 2 2 3 3 3 2 1 4 3 2 2 2 2 3 2 1 5 7 7 4 1 1 1 1 4 7 7 6 6 6 7 8 5 3 4 3 3 2 2 4 3 1 1 2 3 4 4 5 5 1 5 5 5 6 7 7 8 12 18 21 23 26 27 32
5 2 1 3 6 6 5 3 1 2 2 0 2 3 4 4 3 5 7 4 3 4 4 3 3 3 3 3 2 2 2 3 3 2 2 3 3 3 6 10 13 10 5 3 2 1 1 2 3 6 7 8 12 14 11 7 4 2 3 1 1 1 2 2 3 3 4 3 3 4 4 5 5 2 4 3 4 7 9 7 8 15 21 21 22 24 25 30
6 2 3 4 4 4 4 2 2 1 0 3 4 4 7 5 3 5 5 4 3 2 1 2 3 3 3 3 2 2 2 3 4 3 2 3 4 6 11 15 15 10 5 2 1 1 1 2 2 5 7 6 9 10 6 0 3 3 1 1 1 1 2 1 3 4 4 4 4 4 4 4 5 6 7 10 13 15 14 9 7 14 23 24 23 23 25 30
5 2 3 4 4 3 3 1 0 1 3 4 4 6 8 5 3 3 3 4 5 2 1 2 3 4 4 3 2 1 2 3 3 4 3 3 3 7 11 13 11 6 2 3 2 2 2 1 1 5 7 5 5 6 6 4 3 2 3 2 0 2 3 1 2 2 2 5 6 4 3 5 7 10 11 12 15 16 16 16 13 13 19 24 25 26 28 30
5 1 3 6 4 2 1 3 2 1 1 4 4 5 5 3 3 5 6 10 11 5 2 3 5 5 4 4 4 3 3 3 3 3 3 3 3 6 8 11 10 6 9 15 11 1 1 2 1 1 4 5 5 4 3 5 6 4 4 3 3 4 5 3 2 2 4 7 7 3 4 9 11 14 16 14 13 13 17 22 24 22 22 22 22 27 31 32
3 1 2 5 4 4 3 5 6 3 1 4 4 3 2 1 4 8 10 10 9 5 4 5 7 5 3 4 5 4 3 4 5 4 4 5 4 3 7 12 13 14 21 27 19 4 1 2 3 5 6 7 9 7 4 5 8 9 11 11 9 7 6 4 2 4 6 6 6 6 9 13 16 17 18 16 13 13 14 17 22 26 29 28 26 29 32 33
2 1 1 2 2 3 4 6 9 6 1 3 3 2 2 2 3 6 6 4 6 8 5 5 4 1 3 6 6 5 6 5 6 7 7 7 5 6 13 16 16 22 24 21 13 3 2 3 5 9 10 11 12 12 9 7 10 13 15 17 15 10 6 6 7 10 7 3 7 11 11 12 15 17 18 18 16 14 13 14 17 23 29 34 36 35 35 35
1 0 1 1 0 1 2 4 8 5 2 2 1 2 3 3 3 3 4 5 9 10 4 2 1 5 7 9 7 7 9 8 7 6 5 7 7 8 13 11 12 17 14 9 6 2 2 5 6 8 12 14 14 14 12 10 10 12 14 16 17 14 10 10 13 14 9 5 9 15 14 11 13 17 19 19 18 15 15 17 21 25 29 34 39 39 38 38
1 0 0 1 0 1 2 6 7 3 2 2 2 2 1 3 4 3 3 5 6 6 4 3 4 7 8 7 5 7 8 7 8 7 6 9 10 8 9 8 6 6 6 4 5 3 1 3 4 7 11 13 13 13 13 12 12 13 15 16 17 17 14 12 14 15 12 11 14 18 20 16 14 16 20 24 25 22 21 24 25 27 30 31 34 36 38 40
1 1 1 1 2 4 5 5 3 1 2 2 3 3 3 3 4 4 3 3 4 5 4 4 5 7 6 6 5 7 8 7 9 10 9 9 9 7 6 5 4 5 7 6 6 3 1 3 4 5 8 12 14 14 13 14 13 14 16 16 16 15 14 13 14 13 11 12 14 16 17 17 15 15 19 27 30 25 21 23 25 26 27 27 29 32 35 38
3 3 3 1 2 2 2 2 1 0 2 2 4 4 3 3 3 4 4 6 8 6 2 2 6 7 6 6 7 10 13 11 11 15 14 12 13 12 9 8 9 11 10 8 5 3 3 4 6 6 7 11 13 13 13 13 13 15 17 17 14 12 12 13 11 8 8 10 12 12 11 13 14 14 14 19 23 19 15 17 23 26 25 23 24 29 32 36
5 5 4 2 1 2 3 3 1 0 2 4 6 4 3 4 4 4 4 6 7 8 6 6 10 8 6 9 11 13 18 18 17 22 23 22 24 25 23 22 21 16 11 7 6 5 5 5 6 5 6 9 13 13 11 8 9 11 10 10 11 10 11 12 11 10 11 10 8 9 10 12 14 13 12 15 17 16 15 17 21 25 24 22 23 28 32 35
Wind_Direction
11 8 7 6 4 4 3 360 357 354 352 349 346 344 345 344 345 346 345 345 343 343 343 341 340 338 338 337 338 339 336 332 331 337 340 340 336 296 276 315 325 308 302 304 305 305 301 291 271 246 253 250 245 262 256 252 241 228 194 200 217 206 206 194 192 205 188 250 274 292 267 219 232 230 214 204 201 188 177 181 178 189 203 207 206 214 194 182
11 7 3 3 1 359 359 357 354 351 349 348 345 342 341 340 341 342 342 342 342 342 341 340 339 337 336 335 337 339 342 343 340 351 31 46 46 22 356 344 323 305 309 313 308 315 312 297 287 268 273 260 224 238 238 235 227 208 164 214 224 204 210 205 209 224 218 254 271 297 309 258 233 241 206 200 193 167 157 171 179 184 191 190 194 197 188 183
9 7 3 1 0 359 357 355 352 349 347 345 343 341 339 338 339 338 339 339 341 341 339 339 336 335 334 333 337 338 340 348 356 50 93 86 70 39 8 314 306 309 316 325 320 322 321 303 302 303 296 279 232 235 235 216 218 212 205 234 238 226 246 242 241 246 243 259 285 289 296 285 255 255 215 209 195 177 173 171 173 182 187 187 188 185 184 183
7 6 4 1 0 359 356 354 352 349 346 344 342 340 338 338 338 336 337 338 339 338 338 337 334 334 331 332 337 337 340 348 23 105 109 95 62 20 359 319 316 319 317 330 325 310 317 308 305 309 291 280 250 248 245 219 219 207 202 220 234 232 260 255 251 254 256 264 274 277 283 287 279 264 225 204 183 211 206 187 190 197 193 186 181 180 183 184
8 8 5 2 360 357 355 354 352 349 346 344 342 340 338 338 337 336 336 337 338 336 335 335 333 331 329 333 336 336 345 355 94 104 100 280 332 334 336 332 331 324 318 328 326 299 302 321 329 317 269 261 258 253 249 227 227 235 234 237 234 233 255 263 261 257 259 266 270 274 276 272 276 268 242 209 183 220 214 199 200 205 203 196 187 183 184 186
10 8 5 3 359 356 355 353 351 349 346 344 341 339 338 337 335 334 335 337 335 333 333 331 331 330 329 332 333 338 352 346 308 351 311 282 289 321 339 341 343 329 315 318 324 315 308 329 337 318 264 254 259 233 256 252 243 249 264 265 252 243 240 263 270 266 267 272 269 266 266 267 264 260 259 235 223 231 219 213 210 210 211 206 197 188 187 190
7 6 5 2 359 358 355 353 350 348 347 344 342 340 338 337 334 333 334 335 333 331 331 330 331 329 327 330 332 336 335 322 320 293 279 289 287 311 329 336 342 319 306 313 323 332 322 328 334 311 281 273 273 243 271 286 277 255 259 273 266 258 251 259 266 268 273 274 272 274 272 271 257 249 261 246 246 246 225 220 217 216 210 202 197 194 196 198
3 2 1 359 358 356 354 353 350 348 348 346 344 341 338 337 334 332 331 331 331 330 329 330 331 328 328 331 335 334 328 333 345 303 283 308 304 308 313 315 334 314 311 314 316 328 322 329 346 328 289 266 291 293 298 304 288 244 237 267 269 267 264 268 272 272 275 272 275 283 276 269 264 261 269 249 244 233 198 198 210 215 206 199 201 200 203 205
2 360 358 357 354 353 352 351 349 348 348 346 345 342 338 337 335 333 329 327 328 329 330 330 329 327 327 330 335 335 330 337 339 311 289 300 296 290 304 313 325 314 318 309 297 320 330 338 344 337 313 289 289 296 303 313 280 243 274 295 290 284 284 283 282 277 276 277 278 284 277 271 268 268 271 250 239 224 207 210 202 211 208 204 207 208 209 210
0 358 355 354 352 350 350 349 348 347 346 345 344 341 339 337 335 332 327 324 327 330 329 329 328 325 325 330 337 335 327 334 331 309 282 281 281 272 276 299 315 309 314 307 285 308 333 337 330 322 301 288 280 283 285 259 278 300 309 303 284 280 284 281 279 277 279 287 280 261 261 272 266 253 252 247 237 231 232 234 224 216 213 210 212 215 216 216
358 356 353 352 351 349 349 350 348 345 343 343 341 340 340 338 335 332 327 323 328 329 324 327 327 322 325 324 317 310 327 338 340 326 300 283 281 271 266 268 292 306 311 306 282 285 315 322 325 319 290 282 299 297 280 266 296 308 312 307 285 277 275 263 264 272 274 284 276 250 259 271 263 238 222 241 240 237 240 240 236 226 218 216 215 217 219 222
354 353 351 351 350 350 350 350 348 344 342 342 340 340 340 339 336 331 327 325 329 327 322 327 326 324 327 314 302 312 333 350 357 350 345 328 307 287 280 276 279 290 300 302 288 276 295 310 318 310 289 295 317 304 283 298 313 308 307 305 292 296 279 253 246 257 248 231 276 309 286 264 250 234 225 241 242 241 246 247 244 240 231 224 219 219 221 225
350 350 350 350 351 352 351 351 350 347 345 344 343 343 343 342 337 335 330 323 326 325 323 328 326 326 320 312 322 341 344 353 1 2 359 346 329 306 289 279 278 277 283 292 287 279 287 300 305 298 293 296 287 273 290 309 314 304 290 243 276 302 281 245 224 229 228 227 231 182 270 253 244 246 242 245 242 239 248 250 250 251 247 237 227 223 223 227
348 349 350 351 352 353 352 351 351 351 350 349 348 348 346 342 339 338 326 319 330 330 326 327 326 325 309 312 343 354 338 341 355 356 344 336 330 319 301 280 274 269 271 278 275 277 286 292 293 292 287 278 271 282 299 310 304 291 282 248 225 256 262 253 202 192 208 237 206 177 254 252 242 258 254 251 243 238 245 247 247 249 249 245 235 229 226 226
347 349 351 352 352 353 354 353 353 355 354 353 353 351 346 345 343 332 323 336 344 327 316 318 320 320 305 312 345 342 334 333 332 329 323 322 322 319 316 303 286 269 266 268 267 274 286 292 288 285 280 275 275 285 313 322 291 254 255 273 218 221 256 324 298 184 199 239 196 183 253 262 219 239 249 251 247 237 240 245 247 246 246 245 241 235 230 227
345 348 351 353 353 354 355 354 355 356 356 356 355 351 349 349 339 329 342 353 341 320 309 317 325 320 299 321 345 342 338 327 320 315 309 314 315 314 317 316 310 292 274 266 261 263 279 291 287 275 266 270 253 223 324 318 288 249 222 243 240 235 259 310 293 217 209 229 199 200 237 274 195 227 236 242 244 238 236 242 245 245 244 243 241 237 232 227
343 346 350 352 353 354 355 354 356 357 358 358 354 352 357 356 349 12 11 357 348 345 15 12 343 316 291 350 347 341 338 328 323 318 314 320 316 319 318 311 316 312 301 278 258 259 272 280 277 265 242 230 201 163 233 253 248 253 238 250 255 240 224 243 294 260 209 208 224 222 230 240 233 237 239 238 240 240 239 242 244 245 245 243 240 237 233 227
341 345 349 351 352 354 356 354 355 358 357 357 356 357 5 12 36 55 7 5 19 48 65 18 3 338 298 344 342 338 337 331 331 333 335 340 332 329 320 309 314 314 315 299 261 259 267 261 249 249 223 207 205 183 205 225 220 202 210 246 261 242 228 227 253 269 213 202 225 230 237 241 241 253 258 254 244 234 238 244 246 247 248 247 245 241 238 232
341 344 348 349 351 355 357 354 356 358 355 357 358 360 13 22 39 20 3 15 29 37 42 349 360 77 287 328 339 341 340 340 347 355 357 358 343 323 309 301 305 303 313 327 269 251 239 250 258 240 231 218 209 208 222 240 272 196 209 227 241 240 240 237 235 250 260 252 239 236 245 245 240 244 252 256 253 238 238 245 246 248 250 250 249 246 243 239
340 344 347 349 351 356 357 354 357 357 356 360 0 6 18 17 22 355 356 6 12 359 330 334 335 288 301 326 343 347 346 351 1 8 5 1 349 321 314 299 293 293 277 274 260 244 219 235 246 233 236 233 221 227 238 265 287 274 276 270 254 250 261 257 242 252 247 245 251 239 244 248 239 237 238 247 252 245 239 245 248 251 253 253 251 248 245 243
338 343 347 348 350 355 357 356 360 359 359 4 8 20 28 17 16 341 345 348 354 354 345 355 337 314 335 341 348 349 344 343 352 2 359 356 3 341 341 359 292 288 233 266 265 261 244 235 244 242 248 257 237 230 240 255 264 268 274 277 272 259 262 262 255 269 248 217 266 253 246 251 239 234 236 241 248 248 241 243 250 253 257 260 257 252 248 245
337 342 346 347 349 355 357 359 4 357 358 8 17 26 29 14 5 343 337 322 330 350 358 2 355 349 356 354 351 348 336 326 340 354 354 349 359 340 334 2 309 284 288 341 316 276 256 240 250 252 261 269 250 239 241 245 247 252 255 261 267 261 267 275 264 271 259 209 270 278 256 257 247 238 237 235 238 245 247 248 252 255 257 259 259 257 252 246
334 340 344 345 347 354 358 2 4 354 358 14 19 19 14 3 352 342 341 299 303 334 359 352 347 354 358 358 353 346 336 321 326 344 351 344 343 318 311 329 273 295 298 173 235 271 261 258 264 258 249 251 246 244 246 252 250 237 236 241 253 257 261 270 276 292 290 238 260 300 289 272 262 254 248 242 238 242 251 254 256 258 258 260 261 261 257 250
335 340 342 343 346 352 358 2 3 359 3 15 14 10 3 353 342 338 342 301 282 319 344 339 328 350 356 354 352 345 331 320 315 335 349 346 341 327 292 277 275 303 279 230 223 246 257 268 280 274 248 240 236 240 241 249 255 236 232 233 246 253 239 246 284 313 303 281 269 298 299 280 241 241 256 249 244 240 243 249 255 256 257 261 262 260 258 255
337 340 339 342 344 349 358 2 3 4 6 15 11 4 358 345 337 338 343 340 291 309 335 344 331 352 356 352 351 343 321 317 333 337 343 348 344 327 289 290 271 256 258 262 258 246 259 271 276 267 256 249 235 238 237 232 251 255 234 228 241 252 249 255 273 284 289 287 276 269 279 277 223 225 248 247 245 244 233 234 245 248 250 254 256 256 255 255
337 342 340 340 343 346 356 4 2 1 3 10 9 1 352 337 331 335 346 45 341 305 335 359 353 353 354 350 347 344 324 328 343 342 347 349 345 331 301 300 230 261 294 291 291 254 269 310 299 254 248 248 241 248 243 222 238 257 228 218 231 238 247 252 250 241 240 257 278 170 225 267 262 230 243 234 238 248 239 234 240 243 245 247 248 251 251 252
336 343 341 340 343 345 351 358 357 359 0 358 0 357 344 331 329 331 353 49 352 312 327 357 6 356 351 346 347 356 327 320 334 350 354 346 343 341 300 287 265 303 341 314 289 213 193 338 359 349 278 252 248 255 245 223 231 248 259 248 233 230 237 235 226 234 236 248 283 285 215 266 271 244 231 218 235 261 261 251 247 244 246 248 249 249 249 249
331 338 339 340 343 342 343 345 348 356 356 345 346 346 336 329 327 332 56 78 328 326 331 339 350 348 347 347 354 9 313 313 327 348 348 345 343 345 276 258 280 272 305 271 253 254 78 11 31 62 19 273 256 275 299 303 252 263 310 307 268 245 245 234 224 234 236 242 260 248 209 260 271 247 211 207 226 259 257 247 248 246 244 246 248 250 250 250
322 328 330 334 338 337 338 339 341 348 350 344 342 336 330 328 323 350 78 90 312 349 348 347 349 339 344 351 356 356 335 322 291 328 341 349 343 343 295 276 289 257 277 238 242 280 339 325 318 92 316 270 253 270 319 348 261 288 321 307 294 316 307 269 240 228 221 224 239 232 196 235 269 251 190 216 221 234 247 248 249 248 246 247 247 248 250 250
318 322 318 323 330 332 336 341 341 342 348 351 347 334 328 324 329 59 51 277 278 346 333 353 355 336 343 353 343 344 347 328 317 328 340 346 341 349 338 289 271 247 278 246 249 275 279 283 282 248 226 234 237 238 243 241 245 303 332 302 294 308 305 301 277 222 222 229 231 224 197 209 261 246 187 216 213 209 237 259 262 255 253 255 256 257 256 256
329 326 312 313 325 328 333 341 344 345 349 357 356 340 329 333 52 89 55 273 266 334 336 354 358 339 343 352 318 334 343 323 334 346 342 342 347 357 3 321 278 311 340 339 281 277 275 264 264 253 224 209 219 233 221 225 232 334 341 288 294 282 252 266 272 221 226 233 225 216 194 196 243 248 197 220 233 207 213 241 254 258 257 255 258 260 261 260
346 336 318 313 318 321 325 332 345 354 354 7 1 341 353 37 35 114 266 324 326 320 337 340 351 341 331 337 333 324 333 326 342 358 344 345 354 348 9 25 335 347 1 352 331 312 299 249 283 305 234 178 187 252 213 187 198 202 231 258 268 256 244 229 226 227 230 238 225 182 170 193 242 254 239 241 256 247 241 251 251 252 255 255 257 259 259 259
354 347 344 333 320 315 317 324 349 2 6 20 356 340 65 74 11 232 266 326 286 269 326 345 336 328 322 345 340 315 340 336 339 354 343 354 14 348 351 356 350 2 333 329 338 341 332 306 342 347 317 59 39 265 294 54 208 212 192 222 228 226 257 236 216 240 244 251 280 155 172 215 252 255 241 234 237 239 248 254 252 251 253 256 260 262 263 263
4 1 10 10 340 326 338 355 3 10 18 21 2 21 61 76 244 276 304 275 260 285 323 347 324 318 331 354 310 330 4 316 329 357 346 357 18 352 338 347 359 2 290 320 349 354 348 312 335 13 339 358 8 239 264 353 268 245 209 213 226 228 256 254 233 260 262 283 310 194 196 213 222 245 237 230 235 239 246 254 257 257 259 261 264 266 267 268
14 7 15 31 35 28 24 18 11 13 26 34 41 62 72 142 236 283 277 256 281 314 313 316 315 325 341 314 304 23 47 308 329 353 345 356 358 317 329 352 356 353 343 4 357 360 292 270 278 298 292 300 282 247 241 221 259 248 195 184 228 235 236 264 281 265 274 308 281 211 237 226 242 299 290 262 277 264 252 259 261 260 261 262 264 265 265 266
22 31 65 79 67 50 28 15 11 21 57 75 59 63 138 203 209 190 217 307 330 318 316 315 326 25 340 321 321 357 13 320 335 343 333 344 328 293 345 338 323 338 8 32 328 327 342 286 292 317 304 225 172 273 236 217 257 340 101 226 278 274 213 249 277 243 227 274 253 205 251 260 278 287 280 270 274 270 260 267 266 266 268 268 268 267 266 267
38 82 99 88 60 35 12 4 8 28 80 82 72 74 194 211 193 185 313 343 309 296 321 320 340 352 324 317 309 324 337 331 344 346 334 341 326 306 356 310 259 326 358 64 334 286 316 290 289 302 291 279 320 313 262 231 261 73 284 297 347 338 183 199 263 247 233 252 238 219 238 240 233 260 290 281 264 263 268 276 280 279 278 276 276 275 273 272
35 93 101 75 55 16 353 357 1 20 99 81 48 313 230 212 226 288 338 336 306 318 346 255 298 345 329 317 299 314 332 332 352 347 327 337 310 304 17 330 277 330 331 25 8 281 161 301 292 238 251 303 330 343 324 317 314 252 283 10 54 275 249 206 223 246 249 248 254 239 236 230 206 229 282 272 267 293 304 315 320 302 297 304 308 308 302 290
17 89 99 67 50 350 351 358 2 41 104 91 37 284 272 257 294 319 336 330 289 295 293 229 215 335 342 310 287 315 337 328 343 337 314 349 303 323 20 344 292 336 330 318 171 294 23 297 289 293 338 324 334 14 26 335 322 324 338 2 163 237 256 252 232 289 283 263 282 272 248 246 220 219 240 252 310 357 354 353 348 326 324 331 336 340 338 326
3 64 107 83 349 334 348 351 4 71 89 111 189 233 262 284 296 304 314 315 282 214 260 236 186 303 302 269 277 311 333 305 315 310 268 242 300 307 326 170 308 334 334 330 178 297 360 180 272 302 340 339 324 30 7 320 322 338 337 337 330 299 280 306 280 208 268 269 282 277 258 256 247 234 48 15 13 14 3 354 339 323 327 331 337 345 349 351
20 58 116 311 303 319 343 354 25 78 65 77 185 235 291 282 280 300 311 307 265 235 244 243 225 245 260 270 288 291 271 288 286 231 243 267 284 289 281 338 336 330 338 348 338 347 356 233 270 296 317 322 285 269 281 283 281 285 286 313 342 318 321 319 282 193 6 305 293 292 286 273 263 350 58 44 12 355 340 338 325 318 323 328 334 341 344 348
39 62 77 345 322 325 353 10 46 94 102 328 261 269 302 301 277 304 320 322 270 254 252 248 245 240 245 260 272 254 252 276 262 233 243 246 225 230 272 305 322 326 328 314 286 115 171 235 272 280 285 286 282 285 283 257 228 218 251 286 15 340 351 336 305 335 349 307 278 273 272 270 269 336 32 5 339 324 305 307 319 317 320 327 332 335 337 338
23 56 83 26 7 24 39 24 354 44 181 296 306 311 320 317 289 304 326 355 330 279 271 282 259 245 239 234 232 247 282 283 254 243 261 255 244 252 271 296 316 326 332 309 298 360 240 244 293 288 287 286 284 296 311 249 128 97 6 344 32 5 16 11 292 302 309 294 289 277 264 271 291 325 338 326 323 319 306 300 305 310 316 321 325 327 330 332
12 43 84 33 25 45 52 109 335 305 290 331 348 327 313 291 274 314 335 336 316 264 189 285 243 231 241 243 230 234 295 297 238 230 252 246 245 264 281 300 309 307 301 287 307 2 310 283 23 315 313 329 334 340 356 6 36 39 332 309 72 6 5 347 266 270 270 256 253 256 268 272 286 303 310 313 316 314 308 306 303 298 304 310 315 319 320 323
12 46 51 27 41 52 50 123 104 311 307 4 342 303 312 297 301 335 316 298 291 254 206 273 264 258 266 272 267 246 243 247 237 257 268 249 264 277 288 299 295 279 279 281 281 283 243 242 137 319 300 299 309 319 332 330 327 313 296 276 272 299 305 290 273 274 261 248 240 235 268 274 282 293 299 304 308 304 303 309 310 305 301 304 310 314 315 316
25 80 360 9 40 58 77 95 64 30 30 14 327 286 349 331 296 315 305 290 286 268 242 260 273 274 266 280 285 272 254 234 234 260 279 276 285 288 297 304 295 282 282 283 282 269 166 241 196 204 232 249 263 262 260 302 303 291 291 287 277 264 250 243 245 247 248 258 259 236 241 267 282 287 291 294 294 294 298 302 304 304 307 310 310 308 308 308
54 106 360 360 23 47 71 67 41 28 39 14 327 281 323 307 308 322 301 281 317 312 275 235 253 319 359 346 336 309 307 298 269 270 278 285 296 297 301 304 290 280 282 280 274 232 163 253 220 213 232 243 253 262 266 271 272 273 281 283 279 270 244 225 231 241 247 282 277 252 235 248 269 275 279 282 283 282 284 287 295 302 306 306 305 304 303 302
81 182 68 57 352 104 89 11 356 353 353 356 297 262 305 307 311 317 298 307 322 321 309 234 334 32 14 356 347 314 312 313 291 289 308 313 318 313 310 303 276 280 291 280 258 187 167 245 227 217 241 247 248 256 258 252 255 259 263 270 277 277 258 240 245 251 250 242 259 267 260 245 254 267 270 272 275 278 287 298 304 304 301 299 300 302 303 301
155 166 57 44 295 238 277 307 310 317 356 339 277 233 273 291 284 284 317 331 318 319 331 316 341 11 360 345 335 305 304 306 294 302 323 315 309 308 310 302 279 305 356 338 291 314 307 254 232 226 248 255 251 251 252 249 251 257 259 261 267 269 264 255 255 257 252 239 247 264 270 264 259 265 269 273 279 287 296 299 297 294 292 293 296 297 299 300
152 163 279 348 313 299 307 304 291 307 330 290 257 253 242 251 281 307 336 314 286 305 326 310 319 336 327 319 309 280 276 282 285 292 304 306 305 306 303 299 302 330 340 319 300 302 238 261 289 281 272 271 265 255 245 239 241 251 258 258 259 268 274 266 258 258 256 252 252 258 270 275 267 260 267 276 282 287 291 288 286 285 285 287 289 292 295 299
222 237 270 323 309 281 286 279 235 359 321 229 217 254 245 228 283 344 331 278 260 267 288 313 317 321 317 307 287 272 278 278 270 277 284 284 287 293 290 285 296 305 301 287 271 236 214 262 289 285 272 272 271 262 250 242 242 248 256 263 266 268 271 266 259 252 245 252 261 261 261 267 266 263 267 274 278 279 275 274 279 283 286 287 287 290 294 297
229 226 226 224 252 215 215 262 267 153 270 225 213 237 248 258 301 345 330 290 272 270 282 307 314 318 318 299 290 290 295 292 286 288 290 285 282 281 276 273 273 272 270 273 271 245 229 255 269 257 264 272 269 265 261 253 253 252 248 255 260 253 253 259 261 251 239 238 251 254 246 250 261 267 268 269 274 276 274 274 278 285 291 292 289 290 293 295